Regional Weather Roundup
Issued by NWS Cleveland, OH

Home | Current Version | Previous Version | Graphics & Text | Print | Product List | Glossary On
Versions: 1 2 3 4 5 6 7 8 9 10 11 12 13 14 15 16 17 18 19 20 21 22 23 24 25 26 27 28 29 30 31 32 33 34 35 36 37 38 39 40 41 42 43 44 45 46 47 48 49 50
000
ASUS41 KCLE 240610
RWRCLE
OHIO REGIONAL WEATHER ROUNDUP
NATIONAL WEATHER SERVICE WILMINGTON, OH
100 AM EST MON NOV 24 2014

NOTE: "FAIR" INDICATES FEW OR NO CLOUDS BELOW 12,000 FEET WITH NO
SIGNIFICANT WEATHER AND/OR OBSTRUCTIONS TO VISIBILITY.

OHZ001>008-015>018-024>027-034-035-043-044-240700-
   NORTHWEST OHIO

CITY           SKY/WX    TMP DP  RH WIND       PRES   REMARKS
DEFIANCE       LGT RAIN  56  53  90 S15G28    29.13F
FINDLAY        CLOUDY    57  53  86 S24G35    29.17F
TOLEDO EXPRESS LGT RAIN  55  53  93 S10G24    29.14F
TOLEDO METCALF CLOUDY    57  52  83 S26G37    29.17F
LIMA           LGT RAIN  57  56  96 S22G29    29.17F
$$

OHZ009>014-019>023-028>033-038-089-240700-
   NORTHEAST OHIO

CITY           SKY/WX    TMP DP  RH WIND       PRES   REMARKS
CLE-HOPKINS    LGT RAIN  55  52  89 S18G30    29.31F
CLE-LAKEFRONT  LGT RAIN  56  51  84 SE16G29   29.28F
CUY CO. ARPT   NOT AVBL
LORAIN-ELYRIA  CLOUDY    54  52  93 S21G29    29.27F
ASHTABULA      LGT RAIN  53  49  86 S24G36    29.35F
AKRON-CANTON   CLOUDY    56  51  84 S18G30    29.34F
WOOSTER        CLOUDY   N/A N/A N/A S23G30    29.31F
MANSFIELD      CLOUDY    56  53  90 S26G36    29.27F
YOUNGSTOWN     LGT RAIN  54  51  90 SE16G33   29.37F
$$

OHZ042-051>053-060>062-070>072-077>081-240700-
  SOUTHWEST OHIO

CITY           SKY/WX    TMP DP  RH WIND       PRES   REMARKS
CINC-COVINGTON LGT RAIN  59  54  83 SW17G30   29.29R
CINC-LUNKEN    LGT RAIN  58  50  75 S18G29    29.30R
HAMILTON       LGT RAIN  59  56  89 S10G22    29.27S
DAYTON         LGT RAIN  58  55  90 S23G36    29.23F FOG
WRIGHT-PAT AFB LGT RAIN  57  55  94 S23G31    29.24S
DAYTON GENERAL LGT RAIN  58  55  90 S20G31    29.25F
WILMINGTON     LGT RAIN  56  54  93 S21G29    29.28F FOG
$$

OHZ036-037-039>041-045>050-054>059-063>069-073>076-082>088-240700-
  CENTRAL AND SOUTHEAST OHIO

CITY           SKY/WX    TMP DP  RH WIND       PRES   REMARKS
COLUMBUS       CLOUDY    59  52  77 S16G26    29.30F
OSU AIRPORT    LGT RAIN  58  53  84 S22G32    29.28F
BOLTON FIELD   CLOUDY    55  54  94 S20G26    29.29F
RICKENBACK AFB CLOUDY    57  53  84 S22G32    29.29F
NEWARK         CLOUDY    58  52  80 S13       29.31F
MARION         LGT RAIN  57  53  86 S22G33    29.25F
LANCASTER      CLOUDY    60  52  74 S21G30    29.32F
ZANESVILLE     CLOUDY    56  52  86 S12G23    29.35F
NEW PHILLY     CLOUDY    57  53  86 SE12      29.37F
$$


USA.gov is the U.S. government's official web portal to all federal, state and local government web resources and services.